Time,TemperatureF,DewpointF,PressureIn,WindDirection,WindDirectionDegrees,WindSpeedMPH,WindSpeedGustMPH,Humidity,HourlyPrecipIn,Conditions,Clouds,dailyrainin,SolarRadiationWatts/m^2,SoftwareType,DateUTC
2013-03-13 00:02:00,26.8,14.0,30.06,West,261,2.0,9.0,58,0.00,,,0.00,0,weatherlink.com 1.10,2013-03-13 06:02:00,
2013-03-13 00:17:00,26.7,14.0,30.06,WNW,283,3.0,8.0,58,0.00,,,0.00,0,weatherlink.com 1.10,2013-03-13 06:17:00,
2013-03-13 00:32:00,26.3,14.0,30.05,West,265,1.0,9.0,59,0.00,,,0.00,0,weatherlink.com 1.10,2013-03-13 06:32:00,
2013-03-13 00:47:00,26.3,14.0,30.06,West,261,2.0,5.0,60,0.00,,,0.00,0,weatherlink.com 1.10,2013-03-13 06:47:00,
2013-03-13 01:02:00,26.0,14.0,30.06,WSW,243,0.0,3.0,60,0.00,,,0.00,0,weatherlink.com 1.10,2013-03-13 07:02:00,
2013-03-13 01:17:00,25.4,14.0,30.06,West,267,1.0,5.0,61,0.00,,,0.00,0,weatherlink.com 1.10,2013-03-13 07:17:00,
2013-03-13 01:32:00,24.5,13.0,30.06,WNW,284,1.0,3.0,61,0.00,,,0.00,0,weatherlink.com 1.10,2013-03-13 07:32:00,
2013-03-13 01:47:00,24.0,13.0,30.06,West,276,2.0,3.0,63,0.00,,,0.00,0,weatherlink.com 1.10,2013-03-13 07:47:00,
2013-03-13 02:02:00,23.6,13.0,30.05,WNW,286,1.0,4.0,63,0.00,,,0.00,0,weatherlink.com 1.10,2013-03-13 08:02:00,
2013-03-13 02:17:00,24.1,13.0,30.05,West,263,1.0,4.0,62,0.00,,,0.00,0,weatherlink.com 1.10,2013-03-13 08:17:00,
2013-03-13 02:32:00,24.2,12.0,30.05,NW,321,2.0,4.0,61,0.00,,,0.00,0,weatherlink.com 1.10,2013-03-13 08:32:00,
2013-03-13 02:47:00,25.2,13.0,30.04,WNW,286,2.0,3.0,59,0.00,,,0.00,0,weatherlink.com 1.10,2013-03-13 08:47:00,
2013-03-13 03:02:00,25.3,13.0,30.03,WNW,301,2.0,4.0,59,0.00,,,0.00,0,weatherlink.com 1.10,2013-03-13 09:02:00,
2013-03-13 03:17:00,25.8,13.0,30.02,WNW,290,3.0,6.0,58,0.00,,,0.00,0,weatherlink.com 1.10,2013-03-13 09:17:00,
2013-03-13 03:32:00,25.9,12.0,30.02,WNW,290,3.0,7.0,57,0.00,,,0.00,0,weatherlink.com 1.10,2013-03-13 09:32:00,
2013-03-13 03:47:00,26.0,13.0,30.02,WSW,254,5.0,6.0,57,0.00,,,0.00,0,weatherlink.com 1.10,2013-03-13 09:47:00,
2013-03-13 04:02:00,25.7,13.0,30.01,West,279,1.0,6.0,58,0.00,,,0.00,0,weatherlink.com 1.10,2013-03-13 10:02:00,
2013-03-13 04:17:00,25.6,13.0,30.01,WNW,303,3.0,10.0,59,0.00,,,0.00,0,weatherlink.com 1.10,2013-03-13 10:17:00,
2013-03-13 04:32:00,25.2,12.0,30.00,WNW,303,3.0,11.0,58,0.00,,,0.00,0,weatherlink.com 1.10,2013-03-13 10:32:00,
2013-03-13 04:47:00,24.9,12.0,30.00,NW,306,2.0,6.0,59,0.00,,,0.00,0,weatherlink.com 1.10,2013-03-13 10:47:00,
2013-03-13 05:02:00,25.0,12.0,30.01,WNW,286,6.0,11.0,59,0.00,,,0.00,0,weatherlink.com 1.10,2013-03-13 11:02:00,
2013-03-13 05:17:00,24.6,12.0,30.03,SE,139,3.0,7.0,59,0.00,,,0.00,0,weatherlink.com 1.10,2013-03-13 11:17:00,
2013-03-13 05:32:00,24.7,12.0,30.04,SE,143,3.0,6.0,58,0.00,,,0.00,0,weatherlink.com 1.10,2013-03-13 11:32:00,
2013-03-13 05:47:00,24.9,11.0,30.04,SE,134,2.0,5.0,57,0.00,,,0.00,0,weatherlink.com 1.10,2013-03-13 11:47:00,
2013-03-13 06:02:00,24.9,12.0,30.06,North,355,1.0,3.0,58,0.00,,,0.00,0,weatherlink.com 1.10,2013-03-13 12:02:00,
2013-03-13 06:17:00,25.5,12.0,30.05,WNW,282,1.0,7.0,57,0.00,,,0.00,0,weatherlink.com 1.10,2013-03-13 12:17:00,
2013-03-13 06:32:00,26.0,13.0,30.05,WSW,256,2.0,8.0,57,0.00,,,0.00,0,weatherlink.com 1.10,2013-03-13 12:32:00,
2013-03-13 06:47:00,26.3,13.0,30.05,WSW,257,2.0,7.0,58,0.00,,,0.00,0,weatherlink.com 1.10,2013-03-13 12:47:00,
2013-03-13 07:02:00,26.2,14.0,30.04,West,276,1.0,9.0,59,0.00,,,0.00,0,weatherlink.com 1.10,2013-03-13 13:02:00,
2013-03-13 07:17:00,25.6,13.0,30.05,West,279,2.0,4.0,59,0.00,,,0.00,5,weatherlink.com 1.10,2013-03-13 13:17:00,
2013-03-13 07:32:00,26.3,14.0,30.06,WSW,254,1.0,8.0,60,0.00,,,0.00,25,weatherlink.com 1.10,2013-03-13 13:32:00,
2013-03-13 07:47:00,28.2,15.0,30.07,West,271,2.0,8.0,57,0.00,,,0.00,46,weatherlink.com 1.10,2013-03-13 13:47:00,
2013-03-13 08:03:00,28.8,15.0,30.06,WSW,237,4.0,9.0,56,0.00,,,0.00,125,weatherlink.com 1.10,2013-03-13 14:03:00,
2013-03-13 08:18:00,29.9,15.0,30.06,WNW,293,4.0,6.0,54,0.00,,,0.00,178,weatherlink.com 1.10,2013-03-13 14:18:00,
2013-03-13 08:33:00,30.0,16.0,30.06,WNW,292,4.0,7.0,56,0.00,,,0.00,169,weatherlink.com 1.10,2013-03-13 14:33:00,
2013-03-13 08:48:00,29.7,16.0,30.05,WNW,300,5.0,10.0,57,0.00,,,0.00,176,weatherlink.com 1.10,2013-03-13 14:48:00,
2013-03-13 09:03:00,30.3,17.0,30.05,WNW,293,5.0,11.0,57,0.00,,,0.00,306,weatherlink.com 1.10,2013-03-13 15:03:00,
2013-03-13 09:18:00,31.9,17.0,30.07,NW,324,4.0,11.0,55,0.00,,,0.00,422,weatherlink.com 1.10,2013-03-13 15:18:00,
2013-03-13 09:33:00,33.6,18.0,30.06,NW,318,4.0,9.0,54,0.00,,,0.00,411,weatherlink.com 1.10,2013-03-13 15:33:00,
2013-03-13 09:48:00,34.7,18.0,30.07,NW,304,3.0,10.0,51,0.00,,,0.00,439,weatherlink.com 1.10,2013-03-13 15:48:00,
2013-03-13 10:03:00,36.0,18.0,30.07,NW,310,5.0,13.0,49,0.00,,,0.00,555,weatherlink.com 1.10,2013-03-13 16:03:00,
2013-03-13 10:18:00,36.3,18.0,30.07,WNW,302,5.0,10.0,47,0.00,,,0.00,538,weatherlink.com 1.10,2013-03-13 16:18:00,
2013-03-13 10:33:00,37.4,19.0,30.07,West,261,4.0,9.0,47,0.00,,,0.00,533,weatherlink.com 1.10,2013-03-13 16:33:00,
2013-03-13 10:48:00,37.0,19.0,30.07,NW,309,3.0,7.0,49,0.00,,,0.00,401,weatherlink.com 1.10,2013-03-13 16:48:00,
2013-03-13 11:03:00,36.9,19.0,30.07,WNW,300,2.0,11.0,49,0.00,,,0.00,424,weatherlink.com 1.10,2013-03-13 17:03:00,
2013-03-13 11:18:00,37.5,20.0,30.08,NW,321,3.0,6.0,50,0.00,,,0.00,448,weatherlink.com 1.10,2013-03-13 17:18:00,
2013-03-13 11:33:00,37.7,19.0,30.07,WNW,297,3.0,7.0,48,0.00,,,0.00,510,weatherlink.com 1.10,2013-03-13 17:33:00,
2013-03-13 11:48:00,38.6,20.0,30.08,WNW,300,3.0,6.0,48,0.00,,,0.00,457,weatherlink.com 1.10,2013-03-13 17:48:00,
2013-03-13 12:03:00,39.8,20.0,30.08,NW,318,4.0,5.0,46,0.00,,,0.00,601,weatherlink.com 1.10,2013-03-13 18:03:00,
2013-03-13 12:18:00,40.9,21.0,30.08,NW,316,4.0,6.0,45,0.00,,,0.00,490,weatherlink.com 1.10,2013-03-13 18:18:00,
2013-03-13 12:33:00,41.6,20.0,30.09,NW,317,3.0,5.0,43,0.00,,,0.00,563,weatherlink.com 1.10,2013-03-13 18:33:00,
2013-03-13 12:48:00,43.0,21.0,30.09,WNW,298,2.0,7.0,42,0.00,,,0.00,798,weatherlink.com 1.10,2013-03-13 18:48:00,
2013-03-13 13:04:00,46.0,23.0,30.08,NW,319,4.0,7.0,41,0.00,,,0.00,710,weatherlink.com 1.10,2013-03-13 19:04:00,
2013-03-13 13:19:00,44.9,21.0,30.08,NW,311,3.0,8.0,39,0.00,,,0.00,694,weatherlink.com 1.10,2013-03-13 19:19:00,
2013-03-13 13:34:00,45.8,23.0,30.07,NW,323,3.0,7.0,41,0.00,,,0.00,958,weatherlink.com 1.10,2013-03-13 19:34:00,
2013-03-13 13:49:00,47.2,21.0,30.06,NW,314,4.0,6.0,36,0.00,,,0.00,949,weatherlink.com 1.10,2013-03-13 19:49:00,
2013-03-13 14:04:00,48.2,23.0,30.06,NW,323,4.0,6.0,37,0.00,,,0.00,951,weatherlink.com 1.10,2013-03-13 20:04:00,
2013-03-13 14:19:00,48.1,21.0,30.06,NW,308,4.0,7.0,34,0.00,,,0.00,900,weatherlink.com 1.10,2013-03-13 20:19:00,
2013-03-13 14:34:00,47.9,22.0,30.05,NW,315,6.0,7.0,36,0.00,,,0.00,858,weatherlink.com 1.10,2013-03-13 20:34:00,
2013-03-13 14:49:00,47.6,20.0,30.05,NW,323,4.0,7.0,34,0.00,,,0.00,844,weatherlink.com 1.10,2013-03-13 20:49:00,
2013-03-13 15:04:00,47.5,22.0,30.05,NW,317,2.0,6.0,37,0.00,,,0.00,800,weatherlink.com 1.10,2013-03-13 21:04:00,
2013-03-13 15:19:00,47.0,20.0,30.05,WSW,253,3.0,7.0,35,0.00,,,0.00,752,weatherlink.com 1.10,2013-03-13 21:19:00,
2013-03-13 15:34:00,46.0,21.0,30.04,NNW,337,3.0,6.0,38,0.00,,,0.00,193,weatherlink.com 1.10,2013-03-13 21:34:00,
2013-03-13 15:49:00,45.5,20.0,30.04,NW,306,4.0,6.0,37,0.00,,,0.00,90,weatherlink.com 1.10,2013-03-13 21:49:00,
2013-03-13 16:04:00,44.7,21.0,30.04,NW,322,2.0,11.0,39,0.00,,,0.00,137,weatherlink.com 1.10,2013-03-13 22:04:00,
2013-03-13 16:19:00,44.1,21.0,30.05,NW,312,2.0,5.0,40,0.00,,,0.00,139,weatherlink.com 1.10,2013-03-13 22:19:00,
2013-03-13 16:34:00,43.8,21.0,30.05,NW,317,3.0,5.0,40,0.00,,,0.00,169,weatherlink.com 1.10,2013-03-13 22:34:00,
2013-03-13 16:49:00,43.1,20.0,30.05,NW,305,2.0,7.0,39,0.00,,,0.00,162,weatherlink.com 1.10,2013-03-13 22:49:00,
2013-03-13 17:04:00,42.7,20.0,30.05,NW,320,3.0,6.0,41,0.00,,,0.00,123,weatherlink.com 1.10,2013-03-13 23:04:00,
2013-03-13 17:19:00,41.9,20.0,30.06,NW,310,3.0,7.0,42,0.00,,,0.00,248,weatherlink.com 1.10,2013-03-13 23:19:00,
2013-03-13 17:34:00,41.7,21.0,30.06,NW,315,3.0,7.0,44,0.00,,,0.00,130,weatherlink.com 1.10,2013-03-13 23:34:00,
2013-03-13 17:49:00,42.5,20.0,30.06,NW,325,6.0,6.0,41,0.00,,,0.00,257,weatherlink.com 1.10,2013-03-13 23:49:00,
2013-03-13 18:04:00,41.0,20.0,30.06,NW,313,3.0,5.0,43,0.00,,,0.00,37,weatherlink.com 1.10,2013-03-14 00:04:00,
2013-03-13 18:19:00,38.9,20.0,30.06,WNW,301,3.0,7.0,47,0.00,,,0.00,37,weatherlink.com 1.10,2013-03-14 00:19:00,
2013-03-13 18:34:00,37.5,20.0,30.07,SW,217,1.0,6.0,49,0.00,,,0.00,21,weatherlink.com 1.10,2013-03-14 00:34:00,
2013-03-13 18:49:00,36.6,18.0,30.08,West,265,0.0,0.0,47,0.00,,,0.00,16,weatherlink.com 1.10,2013-03-14 00:49:00,
2013-03-13 19:04:00,35.5,18.0,30.08,West,265,0.0,1.0,50,0.00,,,0.00,5,weatherlink.com 1.10,2013-03-14 01:04:00,
2013-03-13 19:19:00,34.4,17.0,30.08,West,265,0.0,2.0,49,0.00,,,0.00,0,weatherlink.com 1.10,2013-03-14 01:19:00,
2013-03-13 19:34:00,33.7,15.0,30.08,West,265,0.0,1.0,47,0.00,,,0.00,0,weatherlink.com 1.10,2013-03-14 01:34:00,
2013-03-13 19:49:00,33.2,14.0,30.08,West,265,1.0,1.0,46,0.00,,,0.00,0,weatherlink.com 1.10,2013-03-14 01:49:00,
2013-03-13 20:04:00,32.6,16.0,30.09,WNW,300,1.0,3.0,50,0.00,,,0.00,0,weatherlink.com 1.10,2013-03-14 02:04:00,
2013-03-13 20:19:00,32.3,16.0,30.08,WNW,286,2.0,3.0,51,0.00,,,0.00,0,weatherlink.com 1.10,2013-03-14 02:19:00,
2013-03-13 20:34:00,32.7,15.0,30.07,WNW,291,3.0,8.0,48,0.00,,,0.00,0,weatherlink.com 1.10,2013-03-14 02:34:00,
2013-03-13 20:49:00,32.9,14.0,30.07,WNW,294,3.0,7.0,46,0.00,,,0.00,0,weatherlink.com 1.10,2013-03-14 02:49:00,
2013-03-13 21:04:00,32.9,14.0,30.08,West,279,0.0,8.0,46,0.00,,,0.00,0,weatherlink.com 1.10,2013-03-14 03:04:00,
2013-03-13 21:19:00,33.0,13.0,30.09,SSW,210,6.0,10.0,44,0.00,,,0.00,0,weatherlink.com 1.10,2013-03-14 03:19:00,
2013-03-13 21:34:00,33.2,13.0,30.09,WNW,285,2.0,9.0,44,0.00,,,0.00,0,weatherlink.com 1.10,2013-03-14 03:34:00,
2013-03-13 21:49:00,32.7,14.0,30.09,NW,312,3.0,4.0,46,0.00,,,0.00,0,weatherlink.com 1.10,2013-03-14 03:49:00,
2013-03-13 22:04:00,31.7,15.0,30.08,WNW,290,2.0,6.0,51,0.00,,,0.00,0,weatherlink.com 1.10,2013-03-14 04:04:00,
2013-03-13 22:19:00,31.7,14.0,30.06,WNW,294,5.0,14.0,49,0.00,,,0.00,0,weatherlink.com 1.10,2013-03-14 04:19:00,
2013-03-13 22:49:00,31.8,15.0,30.08,WNW,299,2.0,6.0,51,0.00,,,0.00,0,weatherlink.com 1.10,2013-03-14 04:49:00,
2013-03-13 23:04:00,30.8,16.0,30.09,WNW,297,2.0,3.0,54,0.00,,,0.00,0,weatherlink.com 1.10,2013-03-14 05:04:00,
2013-03-13 23:19:00,30.5,16.0,30.09,NW,312,3.0,4.0,54,0.00,,,0.00,0,weatherlink.com 1.10,2013-03-14 05:19:00,
2013-03-13 23:34:00,30.8,15.0,30.09,West,275,0.0,3.0,52,0.00,,,0.00,0,weatherlink.com 1.10,2013-03-14 05:34:00,
2013-03-13 23:49:00,30.9,14.0,30.09,WNW,300,3.0,3.0,50,0.00,,,0.00,0,weatherlink.com 1.10,2013-03-14 05:49:00,